Location: Chochol
(49.7771°N, 14.9780°E)
Time: 01:25:14
(UTC+00:00)

STARLINK-1203 - Pass Details

Date: 09 April 2020
Orbit: 559 x 560 km, 53.0° (Epoch: 30 May)

Event Time Altitude Azimuth Distance (km) Brightness Sun altitude
Rises 19:07:05 0° 292° (WNW) 2,754 9.1 -13.1°
Reaches altitude 10° 19:09:20 10° 291° (WNW) 1,856 7.7 -13.5°
Maximum altitude 19:13:34 81° 206° (SSW) 573 3.6 -14.0°
Enters shadow 19:15:57 25° 120° (ESE) 1,150 4.6 -14.4°
